TimePST,TemperatureF,Dew PointF,Humidity,Sea Level PressureIn,VisibilityMPH,Wind Direction,Wind SpeedMPH,Gust SpeedMPH,PrecipitationIn,Events,Conditions,WindDirDegrees,DateUTC
12:15 AM,46.4,19.4,34,30.09,10.0,Calm,Calm,-,N/A,,Clear,0,2014-01-17 08:15:00
12:35 AM,44.6,19.4,37,30.09,10.0,Calm,Calm,-,N/A,,Clear,0,2014-01-17 08:35:00
12:55 AM,44.6,19.4,37,30.09,10.0,Calm,Calm,-,N/A,,Clear,0,2014-01-17 08:55:00
1:15 AM,42.8,17.6,36,30.09,10.0,Calm,Calm,-,N/A,,Clear,0,2014-01-17 09:15:00
1:35 AM,42.8,17.6,36,30.10,10.0,Calm,Calm,-,N/A,,Clear,0,2014-01-17 09:35:00
1:55 AM,42.8,17.6,36,30.10,10.0,Calm,Calm,-,N/A,,Clear,0,2014-01-17 09:55:00
2:15 AM,42.8,17.6,36,30.10,10.0,Calm,Calm,-,N/A,,Clear,0,2014-01-17 10:15:00
2:35 AM,41.0,19.4,42,30.11,10.0,Calm,Calm,-,N/A,,Clear,0,2014-01-17 10:35:00
2:55 AM,41.0,19.4,42,30.10,10.0,Calm,Calm,-,N/A,,Clear,0,2014-01-17 10:55:00
3:15 AM,41.0,19.4,42,30.10,10.0,Calm,Calm,-,N/A,,Clear,0,2014-01-17 11:15:00
3:35 AM,41.0,19.4,42,30.10,10.0,Calm,Calm,-,N/A,,Clear,0,2014-01-17 11:35:00
3:55 AM,41.0,17.6,39,30.11,10.0,Calm,Calm,-,N/A,,Clear,0,2014-01-17 11:55:00
4:15 AM,39.2,19.4,45,30.11,10.0,Calm,Calm,-,N/A,,Clear,0,2014-01-17 12:15:00
4:35 AM,39.2,19.4,45,30.11,10.0,Calm,Calm,-,N/A,,Clear,0,2014-01-17 12:35:00
4:55 AM,39.2,19.4,45,30.12,10.0,Calm,Calm,-,N/A,,Clear,0,2014-01-17 12:55:00
5:15 AM,39.2,21.2,49,30.12,10.0,Calm,Calm,-,N/A,,Clear,0,2014-01-17 13:15:00
5:35 AM,39.2,21.2,49,30.12,10.0,Calm,Calm,-,N/A,,Clear,0,2014-01-17 13:35:00
5:55 AM,39.2,19.4,45,30.12,10.0,Calm,Calm,-,N/A,,Clear,0,2014-01-17 13:55:00
6:15 AM,39.2,19.4,45,30.12,10.0,Calm,Calm,-,N/A,,Clear,0,2014-01-17 14:15:00
6:35 AM,39.2,19.4,45,30.12,10.0,Calm,Calm,-,N/A,,Clear,0,2014-01-17 14:35:00
6:47 AM,39.2,19.4,45,30.12,10.0,Calm,Calm,-,N/A,,Clear,0,2014-01-17 14:47:00
6:55 AM,37.4,19.4,48,30.13,10.0,Calm,Calm,-,N/A,,Clear,0,2014-01-17 14:55:00
7:15 AM,39.2,19.4,45,30.13,10.0,Calm,Calm,-,N/A,,Clear,0,2014-01-17 15:15:00
7:35 AM,41.0,21.2,45,30.14,10.0,Calm,Calm,-,N/A,,Clear,0,2014-01-17 15:35:00
7:47 AM,42.8,24.8,49,30.13,20.0,Calm,Calm,-,N/A,,Clear,0,2014-01-17 15:47:00
7:55 AM,44.6,26.6,49,30.14,10.0,Calm,Calm,-,N/A,,Clear,0,2014-01-17 15:55:00
8:15 AM,46.4,23.0,40,30.14,10.0,Calm,Calm,-,N/A,,Clear,0,2014-01-17 16:15:00
8:35 AM,50.0,21.2,32,30.15,10.0,Calm,Calm,-,N/A,,Clear,0,2014-01-17 16:35:00
8:47 AM,51.8,19.4,28,30.14,25.0,Calm,Calm,-,N/A,,Clear,0,2014-01-17 16:47:00
8:55 AM,53.6,19.4,26,30.15,10.0,Calm,Calm,-,N/A,,Clear,0,2014-01-17 16:55:00
9:15 AM,55.4,19.4,25,30.15,10.0,Calm,Calm,-,N/A,,Clear,0,2014-01-17 17:15:00
9:35 AM,60.8,19.4,20,30.15,10.0,Calm,Calm,-,N/A,,Clear,0,2014-01-17 17:35:00
9:47 AM,60.8,19.4,20,30.14,25.0,Calm,Calm,-,N/A,,Clear,0,2014-01-17 17:47:00
9:55 AM,62.6,21.2,20,30.14,10.0,Calm,Calm,-,N/A,,Clear,0,2014-01-17 17:55:00
10:15 AM,66.2,21.2,18,30.14,10.0,Calm,Calm,-,N/A,,Clear,0,2014-01-17 18:15:00
10:35 AM,69.8,23.0,17,30.13,10.0,Calm,Calm,-,N/A,,Clear,0,2014-01-17 18:35:00
10:55 AM,73.4,19.4,13,30.11,10.0,SSE,3.5,-,N/A,,Clear,160,2014-01-17 18:55:00
11:15 AM,77.0,19.4,12,30.10,10.0,South,3.5,-,N/A,,Clear,170,2014-01-17 19:15:00
11:35 AM,80.6,19.4,10,30.09,10.0,Calm,Calm,-,N/A,,Clear,0,2014-01-17 19:35:00
11:50 AM,84.2,14.0,7,30.07,25.0,Calm,Calm,-,N/A,,Clear,0,2014-01-17 19:50:00
11:55 AM,84.2,10.4,6,30.07,10.0,Calm,Calm,-,N/A,,Clear,0,2014-01-17 19:55:00
12:15 PM,87.8,8.6,5,30.06,-9999.0,Calm,Calm,-,N/A,,Clear,0,2014-01-17 20:15:00
12:35 PM,87.8,5.0,4,30.05,-9999.0,Calm,Calm,-,N/A,,Clear,0,2014-01-17 20:35:00
12:55 PM,87.8,3.2,4,30.04,-9999.0,Calm,Calm,-,N/A,,Clear,0,2014-01-17 20:55:00
1:15 PM,87.8,5.0,4,30.03,-9999.0,SW,4.6,-,N/A,,Clear,230,2014-01-17 21:15:00
1:35 PM,87.8,10.4,6,30.03,10.0,WSW,6.9,-,N/A,,Clear,240,2014-01-17 21:35:00
1:55 PM,87.8,6.8,5,30.03,10.0,West,8.1,-,N/A,,Clear,280,2014-01-17 21:55:00
2:15 PM,87.8,5.0,4,30.03,10.0,West,12.7,-,N/A,,Clear,270,2014-01-17 22:15:00
2:35 PM,86.0,3.2,4,30.03,10.0,West,11.5,-,N/A,,Clear,270,2014-01-17 22:35:00
2:55 PM,84.2,3.2,5,30.03,10.0,West,11.5,-,N/A,,Clear,270,2014-01-17 22:55:00
3:15 PM,82.4,3.2,5,30.03,10.0,WNW,11.5,-,N/A,,Clear,300,2014-01-17 23:15:00
3:35 PM,80.6,5.0,6,30.04,10.0,WNW,10.4,-,N/A,,Clear,290,2014-01-17 23:35:00
3:50 PM,80.6,5.0,6,30.03,25.0,WNW,11.5,-,N/A,,Partly Cloudy,290,2014-01-17 23:50:00
3:55 PM,78.8,6.8,6,30.04,10.0,WNW,9.2,-,N/A,,Clear,300,2014-01-17 23:55:00
4:15 PM,78.8,8.6,7,30.05,10.0,WNW,9.2,-,N/A,,Clear,290,2014-01-18 00:15:00
4:35 PM,75.2,19.4,12,30.05,10.0,NW,5.8,-,N/A,,Clear,320,2014-01-18 00:35:00
4:55 PM,71.6,21.2,15,30.06,10.0,West,4.6,-,N/A,,Clear,280,2014-01-18 00:55:00
5:15 PM,69.8,21.2,16,30.06,10.0,West,4.6,-,N/A,,Clear,270,2014-01-18 01:15:00
5:35 PM,64.4,21.2,19,30.07,10.0,West,4.6,-,N/A,,Clear,270,2014-01-18 01:35:00
5:55 PM,64.4,21.2,19,30.08,10.0,Calm,Calm,-,N/A,,Clear,0,2014-01-18 01:55:00
6:15 PM,62.6,21.2,20,30.08,10.0,ESE,3.5,-,N/A,,Clear,120,2014-01-18 02:15:00
6:35 PM,62.6,23.0,22,30.08,10.0,Calm,Calm,-,N/A,,Clear,0,2014-01-18 02:35:00
6:47 PM,62.6,23.0,22,30.07,12.0,Calm,Calm,-,N/A,,Clear,0,2014-01-18 02:47:00
6:55 PM,62.6,23.0,22,30.08,10.0,SSE,3.5,-,N/A,,Clear,150,2014-01-18 02:55:00
7:15 PM,59.0,23.0,25,30.08,10.0,Calm,Calm,-,N/A,,Clear,0,2014-01-18 03:15:00
7:35 PM,57.2,24.8,29,30.09,10.0,Calm,Calm,-,N/A,,Clear,0,2014-01-18 03:35:00
7:47 PM,57.2,23.0,27,30.08,12.0,Calm,Calm,-,N/A,,Clear,0,2014-01-18 03:47:00
7:55 PM,55.4,23.0,29,30.09,10.0,Calm,Calm,-,N/A,,Clear,0,2014-01-18 03:55:00
8:15 PM,53.6,24.8,33,30.09,10.0,WNW,3.5,-,N/A,,Clear,290,2014-01-18 04:15:00
8:35 PM,53.6,23.0,30,30.09,10.0,NW,3.5,-,N/A,,Clear,310,2014-01-18 04:35:00
8:47 PM,51.8,23.0,33,30.09,12.0,Calm,Calm,-,N/A,,Clear,0,2014-01-18 04:47:00
8:55 PM,51.8,23.0,33,30.10,10.0,Calm,Calm,-,N/A,,Clear,0,2014-01-18 04:55:00
9:15 PM,51.8,23.0,33,30.10,10.0,West,3.5,-,N/A,,Clear,280,2014-01-18 05:15:00
9:35 PM,50.0,21.2,32,30.10,10.0,Calm,Calm,-,N/A,,Clear,0,2014-01-18 05:35:00
9:55 PM,50.0,23.0,35,30.10,10.0,Calm,Calm,-,N/A,,Clear,0,2014-01-18 05:55:00
10:15 PM,48.2,21.2,34,30.10,10.0,Calm,Calm,-,N/A,,Clear,0,2014-01-18 06:15:00
10:35 PM,46.4,21.2,37,30.10,10.0,Calm,Calm,-,N/A,,Clear,0,2014-01-18 06:35:00
10:55 PM,46.4,21.2,37,30.10,10.0,Calm,Calm,-,N/A,,Clear,0,2014-01-18 06:55:00
11:15 PM,46.4,21.2,37,30.10,10.0,Calm,Calm,-,N/A,,Clear,0,2014-01-18 07:15:00
11:35 PM,44.6,21.2,39,30.09,10.0,Calm,Calm,-,N/A,,Clear,0,2014-01-18 07:35:00
11:55 PM,44.6,21.2,39,30.09,10.0,Calm,Calm,-,N/A,,Clear,0,2014-01-18 07:55:00